RH
60 55 53 51 46 40 35 29 24 24 29 36 45 43 48 44 40 42 42 43 49 52
64 52 51 47 41 35 28 25 22 24 31 36 34 38 42 43 47 48 50 54 55 50
52 53 52 46 38 30 26 23 22 22 30 35 39 46 50 51 50 51 58 58 55 41
56 56 49 39 31 30 28 26 24 25 30 37 41 48 50 53 54 60 66 65 60 42
56 51 42 33 34 33 30 27 25 26 31 37 42 50 51 53 65 73 70 69 51 42
53 47 37 39 37 34 29 27 28 30 34 41 52 55 55 60 73 71 76 69 44 41
51 42 42 40 38 32 29 28 30 33 37 42 50 62 65 71 75 79 72 43 40 41
46 44 41 39 34 30 29 31 33 36 38 45 57 66 72 75 79 68 44 39 39 38
45 39 37 34 31 29 30 32 36 40 45 53 59 67 73 76 57 44 40 39 39 36
40 37 35 33 29 29 31 33 38 44 49 59 66 69 63 48 43 41 39 41 38 39
39 36 33 29 30 32 32 35 42 48 55 61 61 55 48 42 41 40 43 40 39 42
38 34 29 32 34 35 35 41 47 53 55 54 50 49 43 42 40 46 43 40 43 43
36 30 30 33 37 36 40 45 51 56 58 53 52 47 44 43 47 47 42 41 39 40
32 30 29 33 37 41 45 49 55 60 58 54 54 48 46 46 51 47 43 39 35 39